Weather History for Savannah Hunter, GA

Change the Weather History Date:

Tuesday, August 20, 2013

  Actual Average Record
Temperature  
Mean Temperature 82 °F -  
Max Temperature 89 °F 88 °F 95 °F (1997)
Min Temperature 75 °F 71 °F 69 °F (1999)
Cooling Degree Days 17    
Growing Degree Days 32 (Base 50)    
Moisture  
Dew Point 75 °F    
Average Humidity 83    
Maximum Humidity 98    
Minimum Humidity 60    
Precipitation  
Precipitation 0.00 in - - ()
Sea Level Pressure  
Sea Level Pressure 30.09 in    
Wind  
Wind Speed 3 mph (East)    
Max Wind Speed 10 mph    
Max Gust Speed -    
Visibility 10 miles    
Events      
Averages and records for this station are not official NWS values.
T = Trace of Precipitation, MM = Missing Value Source: NWS Daily Summary

Daily Weather History Graph

Daily Weather History Graph

Search for Another Location

Airport:

Trip Planner

Search our weather history database for the weather conditions in past years. The results will help you decide how hot, cold, wet, or windy it might be!

Date:

Astronomy

Aug. 20, 2013 Rise Set
Actual Time 6:52 AM EDT 8:02 PM EDT
Civil Twilight 6:27 AM EDT 8:28 PM EDT
Nautical Twilight 5:56 AM EDT 8:58 PM EDT
Astronomical Twilight 5:25 AM EDT 9:29 PM EDT
Moon 7:37 PM EDT (8/20) 6:19 AM EDT (8/20)
Length of Visible Light 14h 01m
Length of Day
13h 10m
Full, 100% of the Moon is Illuminated
Aug 20
Full
Aug 20
Full
Aug 28
Last Quarter
Sep 5
New
Sep 12
First Quarter

Hourly Weather History & Observations

Time (EDT) Temp. Heat Index Dew Point Humidity Pressure Visibility Wind Dir Wind Speed Gust Speed Precip Events Conditions
12:33 AM 75.2 °F - 73.4 °F 94% 30.08 in 10.0 mi NNE 5.8 mph - N/A   Mostly Cloudy
12:43 AM 75.2 °F - 73.4 °F 94% 30.07 in 10.0 mi NE 4.6 mph - N/A   Scattered Clouds
12:58 AM 75.4 °F - 73.6 °F 94% 30.07 in 10.0 mi Calm Calm - N/A   Scattered Clouds
1:03 AM 75.2 °F - 73.4 °F 94% 30.07 in 10.0 mi ENE 2.3 mph - N/A   Mostly Cloudy
1:08 AM 75.2 °F - 73.4 °F 94% 30.07 in 10.0 mi ENE 2.3 mph - N/A   Scattered Clouds
1:43 AM 75.2 °F - 73.4 °F 94% 30.06 in 10.0 mi Variable 2.3 mph - N/A   Mostly Cloudy
1:48 AM 75.2 °F - 73.4 °F 94% 30.06 in 10.0 mi Variable 1.2 mph - N/A   Scattered Clouds
1:58 AM 75.4 °F - 73.6 °F 94% 30.06 in 10.0 mi Variable 1.2 mph - N/A   Scattered Clouds
2:58 AM 75.0 °F - 73.2 °F 94% 30.05 in 10.0 mi East 2.3 mph - N/A   Clear
3:58 AM 75.0 °F - 73.8 °F 96% 30.05 in 10.0 mi Calm Calm - N/A   Clear
4:58 AM 75.0 °F - 73.8 °F 96% 30.05 in 10.0 mi Calm Calm - N/A   Partly Cloudy
6:55 AM - - - N/A% 30.07 in 10.0 mi Calm Calm - N/A   Clear
7:55 AM 76.1 °F - 75.6 °F 98% 30.08 in 10.0 mi Calm Calm - N/A   Clear
7:58 AM 76.1 °F - 75.6 °F 98% 30.08 in 10.0 mi Calm Calm - N/A   Clear
8:58 AM 81.9 °F 89.2 °F 76.3 °F 83% 30.09 in 10.0 mi East 4.6 mph - N/A   Clear
9:55 AM 84.4 °F 93.9 °F 76.5 °F 77% 30.11 in 10.0 mi Variable 3.5 mph - N/A   Partly Cloudy
10:55 AM 85.3 °F 94.6 °F 75.7 °F 73% 30.12 in 10.0 mi ESE 4.6 mph - N/A   Scattered Clouds
11:58 AM 88.5 °F 100.5 °F 76.6 °F 68% 30.13 in 10.0 mi Variable 4.6 mph - N/A   Partly Cloudy
12:58 PM 88.3 °F 95.9 °F 73.0 °F 60% 30.12 in 10.0 mi SE 10.4 mph - N/A   Clear
1:58 PM 88.9 °F 98.1 °F 74.1 °F 62% 30.11 in 10.0 mi Variable 4.6 mph - N/A   Clear
2:58 PM 89.2 °F 99.5 °F 75.0 °F 63% 30.09 in 10.0 mi SE 10.4 mph - N/A   Partly Cloudy
3:58 PM 89.6 °F 100.4 °F 75.6 °F 63% 30.08 in 10.0 mi East 4.6 mph - N/A   Scattered Clouds
4:58 PM 85.6 °F 93.8 °F 74.3 °F 69% 30.07 in 10.0 mi Variable 3.5 mph - N/A   Mostly Cloudy
5:58 PM 87.3 °F 96.8 °F 75.0 °F 67% 30.07 in 10.0 mi ESE 5.8 mph - N/A   Partly Cloudy
6:58 PM 84.6 °F 92.8 °F 75.0 °F 73% 30.08 in 10.0 mi SE 5.8 mph - N/A   Clear
7:58 PM 82.6 °F 89.9 °F 75.6 °F 79% 30.11 in 10.0 mi East 6.9 mph - N/A   Clear
8:58 PM 81.3 °F 87.6 °F 75.2 °F 82% 30.12 in 10.0 mi ESE 3.5 mph - N/A   Clear
9:58 PM 80.6 °F 86.6 °F 75.9 °F 86% 30.12 in 10.0 mi Variable 1.2 mph - N/A   Clear
10:58 PM 80.8 °F 86.9 °F 75.9 °F 85% 30.14 in 10.0 mi East 2.3 mph - N/A   Clear
11:58 PM 79.3 °F - 76.1 °F 90% 30.15 in 10.0 mi East 2.3 mph - N/A   Clear